Weather in Chishmy 2

Russia / Republic of Bashkortostan     54°34′46″N   55°20′40″E
temp.,
°C
wind,
m/s
gust,
m/s
humid.,
%
clouds,
%
prec.,
mm/h
press.,
hPa
HPBL,
m
20 may, fri
fri2023:00+5wnw511905 1.2 1008518
02:00+3w5109413 0.0 1009353
05:00+2wsw37965 0.0 1010185
08:00+6wsw358444 0.0 1011402
11:00+10sw355866 0.0 10111339
14:00+12sw4557100 0.4 10101453
17:00+12ssw4559100 1.7 10081326
20:00+10s2373100 1.1 100695
21 may, sat
sat2123:00+8nw3788100 1.5 1005242
02:00+6nw3594100 0.0 1002152
05:00+6n2394100 0.0 100197
08:00+6nnw3595100 0.6 1000366
11:00+6n3495100 4.1 999842
14:00+6nnw3593100 2.6 999365
17:00+4nw71095100 3.4 999479
20:00+4nw71196100 3.1 1000390
22 may, sun
sun2223:00+5nnw6895100 4.9 1000917
02:00+4nw6996100 0.6 1000806
05:00+3wnw6118982 0.8 1001504
08:00+4w6987100 0.0 1001553
11:00+6w787070 0.5 10011347
14:00+6wsw786670 0.4 10011405
17:00+8wsw796198 0.9 10011632
20:00+7wsw4778100 0.8 1000540
23 may, mon
mon2323:00+4sw3388100 1.1 100054
02:00+3ssw229099 0.0 99829
05:00+3s229399 0.0 99718
08:00+6ssw1286100 0.1 996491
11:00+9sw126883 0.3 9961064
14:00+10w2362100 0.2 9971147
17:00+10wsw356199 0.3 9991309
20:00+9wsw367088 0.2 1000334
24 may, tue
tue2423:00+5sw358312 0.2 100279
02:00+3sw348852 0.0 100361
05:00+2ssw33895 0.0 100558
08:00+7ssw47755 0.0 1005459
11:00+10sw675979 0.0 10061647
14:00+13sw465199 0.1 10061936
17:00+13wsw4557100 0.1 10061539
20:00+11w2468100 0.0 1006117